Terug naar catalogus

CZ-6A DEB

ActiefSSO
NORAD 54528·DEBRIS·🇨🇳 China

Gelanceerd Nov 11, 2022 vanaf Taiyuan Satellite Launch Center

Loading…

Volgende Passages (komende 24 uur)

TLE

VersSource: Space-Track

Epoch: Sep 14, 2026, 01:02 UTC

1 54528U 22151KG  26257.04343188  .00001660  00000-0  42940-3 0  9993
2 54528  98.5295 290.7374 0091710  51.4598 309.4770 14.48774018201890

Volg CZ-6A DEB in realtime met AllMySat

Download on the App Store